Flag for U.S.A. Weather past 2 weeks in San Jose, California, U.S.A.

Now
75 °F

Scattered clouds.


Feels Like: 77 °F
Forecast: 64 / 78 °F
Wind: 9 mph from Northwest

Location: San Jose International Airport

Current Time: Aug 28, 2015 at 9:02:32 PM

Latest Report: Aug 28, 2015 at 7:53 PM


Visibility: 10 mi

Pressure: 29.87 "Hg

Humidity: 60%

Dew point: 60 °F

Location of San JoseLocation

Historic Weather in San Jose — Graph

°F

San Jose temperature yesterday

Maximum temperature yesterday: 91 °F (at 2:53 PM)
Minimum temperature yesterday: 64 °F (at 5:53 AM)
Average temperature yesterday: 75 °F

Past Weeks' High & Low Weather Summary

 TemperatureHumidityPressure
High97 °F (Aug 16, 2:53 PM)90% (Aug 18, 5:53 AM)30.09 "Hg (Aug 18, 5:53 AM)
Low59 °F (Aug 15, 5:53 AM)18% (Aug 27, 2:53 PM)29.79 "Hg (Aug 16, 4:53 PM)
Average71 °F64%29.93 "Hg
* Reported Aug 13 6:53 PM — Aug 28 6:53 PM, San Jose, Weather by CustomWeather, © 2015

Note: Actual official high and low records may vary slightly from our data, if they occured in-between our weather recording intervals... More about our weather records

Advertising

San Jose weather history for previous 24 hours

 ConditionsComfort  
Time TempWeatherWind HumidityBarometerVisibility
6:53 PM
Fri, Aug 28
79 °FBroken clouds.20 mph50%29.85 "Hg10 mi
5:53 PM86 °FScattered clouds.20 mph37%29.83 "Hg10 mi
4:53 PM91 °FBroken clouds.20 mph30%29.82 "Hg10 mi
3:53 PM94 °FScattered clouds.14 mph26%29.82 "Hg10 mi
2:53 PM94 °FScattered clouds.13 mph27%29.84 "Hg10 mi
1:53 PM92 °FScattered clouds.12 mph27%29.86 "Hg10 mi
12:53 PM92 °FScattered clouds.8 mph29%29.87 "Hg10 mi
11:53 AM89 °FBroken clouds.5 mph32%29.88 "Hg10 mi
10:53 AM83 °FBroken clouds.5 mph43%29.90 "Hg10 mi
9:53 AM83 °FBroken clouds.No wind37%29.90 "Hg10 mi
8:53 AM78 °FBroken clouds.No wind42%29.90 "Hg10 mi
7:53 AM72 °FBroken clouds.3 mph52%29.91 "Hg10 mi
6:53 AM67 °FPartly cloudy.6 mph59%29.90 "Hg10 mi
5:53 AM66 °FClear.3 mph61%29.91 "Hg10 mi
4:53 AM66 °FClear.No wind61%29.91 "Hg10 mi
3:53 AM67 °FClear.No wind61%29.93 "Hg10 mi
2:53 AM69 °FClear.No wind57%29.94 "Hg10 mi
1:53 AM70 °FClear.No wind57%29.95 "Hg10 mi
12:53 AM71 °FClear.No wind55%29.95 "Hg10 mi
11:53 PM
Thu, Aug 27
72 °FPassing clouds.No wind53%29.96 "Hg10 mi
10:53 PM73 °FPassing clouds.No wind50%29.98 "Hg10 mi
9:53 PM74 °FPassing clouds.No wind50%29.98 "Hg10 mi
Weather by CustomWeather, © 2015

See weather overviewHow to use our weather pages